User: anonymous   Login
Location: Mentone
(34.5413°N, 85.5351°W)
Time: 17:55:27
(UTC-05:00)
Language:

Cosmos 2026 Rocket - Orbit

View from above orbital plane
View from above orbital plane
View from above satellite
View from above satellite

Ground track
Ground track

The orbit data is extracted from the following two-line orbital elements,

1 20046U 89042B   15108.32884719  .00000140  00000-0  12282-3 0  9995
2 20046 082.9394 172.5237 0043432 125.1031 305.2422 13.78012303300330
Epoch (UTC): 18 April 2015 07:53:32
Eccentricity: 0.0043432
inclination: 82.9394°
perigee height: 939 km
apogee height: 1003 km
right ascension of ascending node: 172.5237°
argument of perigee: 125.1031°
revolutions per day: 13.78012303
mean anomaly at epoch: 305.2422°
orbit number at epoch: 30033

The dashed part of the orbit path shows where the satellite is in the earth's shadow,  

DLR